Tracking 32571 objects as of 17-Dec-2025
HD Live streaming from Space Station
objects crossing your sky now

WSF-M

Track WSF-M now!
10-day predictions
WSF-M is classified as:


NORAD ID: 59481
Int'l Code: 2024-070A
Perigee: 826.1 km
Apogee: 834.2 km
Inclination: 98.7 °
Period: 101.4 minutes
Semi major axis: 7201 km
RCS: Unknown
Launch date: April 11, 2024
Source: United States (US)
Launch site: AIR FORCE WESTERN TEST RANGE (AFWTR)
Your satellite tracking list
Your tracking list is empty




NASA's NSSDC Master Catalog

Two Line Element Set (TLE):
1 59481U 24070A   25351.31212465  .00000062  00000-0  49050-4 0  9990
2 59481  98.7187 356.7158 0005659 121.1617 239.0115 14.20695671 87274
Source of the keplerian elements: AFSPC